Regional Weather Roundup
Issued by NWS

Home | Current Version | Previous Version | Text Only | Print | Product List | Glossary Off
Versions: 1 2 3 4 5 6 7 8 9 10 11 12 13 14 15 16 17 18 19 20 21 22 23 24 25 26 27 28 29 30 31 32 33 34 35 36 37 38 39 40 41 42 43 44 45 46 47 48 49 50

000
ASUS43 KFSD 210610
RWRSD

WEATHER ROUNDUP FOR SOUTH DAKOTA
NATIONAL WEATHER SERVICE SIOUX FALLS SD
100 AM CDT SUN SEP 21 2014

NOTE: "FAIR" INDICATES FEW OR NO CLOUDS BELOW 12,000 FEET WITH NO
SIGNIFICANT WEATHER AND/OR OBSTRUCTIONS TO VISIBILITY.


SDZ001>005-009-010-012>017-210700-
NORTHWEST AND NORTH CENTRAL SOUTH DAKOTA

CITY           SKY/WX    TMP DP  RH WIND       PRES   REMARKS
BUFFALO          N/A     53  36  52 N15       30.20R
FAITH            N/A     49  37  63 NW8       30.22R
MOBRIDGE       CLEAR     50  42  74 N8        30.13R
$$

SDZ012>016-024>037-041>051-057-063-072>074-210700-
SOUTHWEST AND SOUTH CENTRAL SOUTH DAKOTA

CITY           SKY/WX    TMP DP  RH WIND       PRES   REMARKS
RAPID CTY ARPT CLEAR     55  37  50 N10       30.28R
PIERRE         CLEAR     51  43  74 NW8       30.15R
CUSTER         CLEAR     48  33  56 SW3       30.37R
ELLSWORTH AFB  CLEAR     59  36  41 N12       30.28R
PHILIP         CLEAR     48  39  71 NW9       30.21R
PINE RIDGE     CLEAR     45  40  82 CALM      30.28R
WINNER         FAIR      53  39  59 NW6       30.18R
$$

SDZ004>011-016>023-039-040-210700-
NORTHEAST SOUTH DAKOTA

CITY           SKY/WX    TMP DP  RH WIND       PRES   REMARKS
ABERDEEN       CLEAR     57  41  55 NW14      30.08R
WATERTOWN      CLEAR     57  43  59 NW14      30.03R
SISSETON         N/A     59  45  59 N14       29.99R
$$

SDZ017-020-022-023-036>040-048>070-210700-
SOUTHEAST SOUTH DAKOTA

CITY           SKY/WX    TMP DP  RH WIND       PRES   REMARKS
SIOUX FALLS    CLEAR     56  46  69 W8        30.05R
HURON          CLEAR     53  40  61 NW12      30.08R
CHAMBERLAIN    CLEAR     54  41  62 NW7       30.15R
MITCHELL       CLEAR     56  43  61 NW10      30.10R
YANKTON        CLEAR     55  45  67 W10       30.09S
$$

ABBREVIATIONS USED IN REMARKS
   TC - TEMPERATURE IN CELSIUS
  WCI - WIND CHILL INDEX
   HX - HEAT INDEX
  VSB - VISIBILITY




USA.gov is the U.S. government's official web portal to all federal, state and local government web resources and services.